Аэропорт
Игнатьево (UHBB)

 UHBB / BQS
ЗЦ Хабаровск
Хабаровск (UHHH)
Хабаровск (UHHH)
 50.42540, 127.41200  / 638 ft

 UHBB 191200Z 01003MPS 9999 SCT033CB 13/10 Q1004 R36/190060 NOSIG RMK QFE735/0981

uhbb_aip_1605
показать схемы
Название сценария Тип сценария Flight Simulator 9 Flight Simulator X Prepar3D v2 Prepar3D v3 Prepar3D v4 xPlane
uhbb-scenery-fs9-1406 бесплатный
uhbb-scenery-xpl-1209 бесплатный


2019 © VATRUS division (Privacy Policy)